Погода в Добра-Вода

Черногория     42°02′04″N   19°08′57″E
темп.,
°C
ветер,
м/с
пор.,
м/с
влажн.,
%
обл.,
%
осадки,
мм/ч
давл.,
гПа
погр.,
м
25 февраля, чт
чт2501:00+11ссв34620 0.0 103337
04:00+11св33620 0.0 103240
07:00+11св33630 0.0 103346
10:00+15всв33530 0.0 1032171
13:00+18ююв12490 0.0 1031431
16:00+16з236386 0.0 1030105
19:00+13вюв117392 0.0 103123
22:00+12ссв227042 0.0 103123
26 февраля, пт
пт2601:00+12с126821 0.0 103022
04:00+11ссв12720 0.0 102922
07:00+11ссв22710 0.0 102924
10:00+15вюв11610 0.0 1028228
13:00+16юз22590 0.0 1027353
16:00+15зюз33670 0.0 1025175
19:00+13з11740 0.0 102523
22:00+11всв11800 0.0 102523
27 февраля, сб
сб2701:00+11ссз11800 0.0 102522
04:00+11ссв11790 0.0 102422
07:00+11ссв22750 0.0 102423
10:00+15св12580 0.0 1024252
13:00+17ссз12460 0.0 1023817
16:00+17всв12550 0.0 1022572
19:00+13ссв23660 0.0 102441
22:00+11ссв44660 0.0 102571
28 февраля, вс
вс2801:00+10св45690 0.0 1025134
04:00+8св56660 0.0 1025155
07:00+7св56620 0.0 1026185
10:00+10св56500 0.0 1027444
13:00+13всв44420 0.0 1026686
16:00+13в23500 0.0 1026460
19:00+10ссв11600 0.0 102840
22:00+9ссв33600 0.0 103084
1 марта, пн
пн101:00+7св44620 0.0 103096
04:00+6св44590 0.0 103079
07:00+6св44580 0.0 103087
10:00+11всв33450 0.0 1030317
13:00+13в12400 0.0 1029556
16:00+13зсз22390 0.0 1028677
19:00+10с22520 0.0 103070
22:00+9св22500 0.0 103261